Skip Page Navigation
NASA JPL Caltech
NASA Logo - Jet Propulsion Laboratory + View the NASA Portal
+ Near-Earth Object (NEO) Program
Search JPL
JPL Home Earth Solar System Stars & Galaxies Technology
JPL Solar System Dynamics
BODIES ORBITS EPHEMERIDES TOOLS PHYSICAL DATA DISCOVERY FAQ SITE MAP
JPL Small-Body Database Browser
Search: [ help ]  
131245 Bakich (2001 FF1)
Classification: Main-belt Asteroid          SPK-ID: 2131245
Ephemeris | Orbit Diagram | Orbital Elements | Physical Parameters | Discovery Circumstances ]

[ show orbit diagram ]
Orbital Elements at Epoch 2457000.5 (2014-Dec-09.0) TDB
Reference: JPL 7 (heliocentric ecliptic J2000)
 Element Value Uncertainty (1-sigma)   Units 
e .08314498915391097 9.3061e-08  
a 2.790327160925464 4.2163e-08 AU
q 2.558325439394453 2.6683e-07 AU
i 4.343609119601638 1.0016e-05 deg
node 188.4366972791121 0.0001058 deg
peri 183.7824002997027 0.00011944 deg
M 141.0536738095016 5.1701e-05 deg
tp 2456333.442889453645
(2013-Feb-09.94288945)
0.00024549 JED
period 1702.476463824735
4.66
3.8588e-05
1.056e-07
d
yr
n .2114566677716262 4.7928e-09 deg/d
Q 3.022328882456475 4.5669e-08 AU
  Orbit Determination Parameters
   # obs. used (total)      260  
   data-arc span      8018 days (21.95 yr)  
   first obs. used      1992-04-05  
   last obs. used      2014-03-19  
   planetary ephem.      DE431  
   SB-pert. ephem.      SB431-BIG16  
   condition code      0  
   fit RMS      .57025  
   data source      ORB  
   producer      Otto Matic  
   solution date      2014-Jun-11 04:26:04  

Additional Information
 Earth MOID = 1.55824 AU 
 T_jup = 3.320 
[ show covariance matrix ]

Ephemeris | Orbit Diagram | Orbital Elements | Physical Parameters | Discovery Circumstances ]

Physical Parameter Table
Parameter Symbol Value Units Sigma Reference Notes
absolute magnitude H 15.6 mag n/a MPO251203  

131245 Bakich           Discovered 2001 Mar. 16 by D. Healy at Junk Bond Observatory.
As senior editor of Astronomy, Michael E. Bakich (b. 1953) serves as a science popularizer. A historian of astronomy specializing in the nineteenth century, he spent 30 years in planetaria as educator and consultant. He also wrote several books, including the Cambridge Encyclopedia of Amateur Astronomy.
NOTE: some special characters may not display properly (any characters within {} are an attempt to place the proper accent above a character)
Reference: 20070402/MPCPages.arcLast Updated: 2007-07-05

Alternate Designations
 2001 FF1 = 2003 SQ179 
Ephemeris | Orbit Diagram | Orbital Elements | Physical Parameters | Discovery Circumstances ]
ABOUT SSD CREDITS/AWARDS PRIVACY/COPYRIGHT GLOSSARY LINKS
FirstGov 2014-Aug-20 16:34 UT
(server date/time)  
NASA Home Page
Site Manager:   Donald K. Yeomans
Webmaster  Alan B. Chamberlin